Time,TemperatureF,DewpointF,PressureIn,WindDirection,WindDirectionDegrees,WindSpeedMPH,WindSpeedGustMPH,Humidity,HourlyPrecipIn,Conditions,Clouds,dailyrainin,SoftwareType,DateUTC
2013-02-14 00:03:00,26.8,22.3,30.33,NNE,23,0.4,0.4,83,0.00,,,0.00,WUHU216HW,2013-02-14 08:03:00,
2013-02-14 00:29:00,26.6,22.4,30.34,North,0,0.0,0.0,84,0.00,,,0.00,WUHU216HW,2013-02-14 08:29:00,
2013-02-14 00:34:00,26.6,22.4,30.34,North,0,0.0,0.0,84,0.00,,,0.00,WUHU216HW,2013-02-14 08:34:00,
2013-02-14 00:58:00,26.5,22.0,30.34,North,0,0.0,0.0,83,0.00,,,0.00,WUHU216HW,2013-02-14 08:58:00,
2013-02-14 01:03:00,26.5,22.0,30.34,North,0,0.0,0.0,83,0.00,,,0.00,WUHU216HW,2013-02-14 09:03:00,
2013-02-14 01:28:00,25.6,21.1,30.35,NNE,23,0.2,0.2,83,0.00,,,0.00,WUHU216HW,2013-02-14 09:28:00,
2013-02-14 01:33:00,25.6,21.1,30.35,NNE,23,0.2,0.2,83,0.00,,,0.00,WUHU216HW,2013-02-14 09:33:00,
2013-02-14 01:58:00,25.4,21.3,30.35,NNE,23,0.0,0.0,84,0.00,,,0.00,WUHU216HW,2013-02-14 09:58:00,
2013-02-14 02:03:00,25.4,21.3,30.35,NNE,23,0.0,0.0,84,0.00,,,0.00,WUHU216HW,2013-02-14 10:03:00,
2013-02-14 02:28:00,24.8,20.7,30.36,SE,135,0.0,0.0,84,0.00,,,0.00,WUHU216HW,2013-02-14 10:28:00,
2013-02-14 02:33:00,24.8,20.7,30.36,SE,135,0.0,0.0,84,0.00,,,0.00,WUHU216HW,2013-02-14 10:33:00,
2013-02-14 02:58:00,24.5,20.3,30.37,North,0,0.0,0.0,84,0.00,,,0.00,WUHU216HW,2013-02-14 10:58:00,
2013-02-14 03:03:00,24.5,20.3,30.37,North,0,0.0,0.0,84,0.00,,,0.00,WUHU216HW,2013-02-14 11:03:00,
2013-02-14 03:08:00,24.5,20.3,30.37,North,0,0.0,0.0,84,0.00,,,0.00,WUHU216HW,2013-02-14 11:08:00,
2013-02-14 03:28:00,24.5,20.3,30.36,North,0,0.0,0.0,84,0.00,,,0.00,WUHU216HW,2013-02-14 11:28:00,
2013-02-14 03:33:00,24.5,20.3,30.36,North,0,0.0,0.0,84,0.00,,,0.00,WUHU216HW,2013-02-14 11:33:00,
2013-02-14 03:58:00,24.3,20.4,30.38,North,0,0.0,0.0,85,0.00,,,0.00,WUHU216HW,2013-02-14 11:58:00,
2013-02-14 04:03:00,24.3,20.4,30.38,North,0,0.0,0.0,85,0.00,,,0.00,WUHU216HW,2013-02-14 12:03:00,
2013-02-14 04:08:00,24.3,20.4,30.38,North,0,0.0,0.0,85,0.00,,,0.00,WUHU216HW,2013-02-14 12:08:00,
2013-02-14 04:28:00,24.1,20.3,30.39,North,0,0.0,0.0,85,0.00,,,0.00,WUHU216HW,2013-02-14 12:28:00,
2013-02-14 04:33:00,24.1,20.3,30.39,North,0,0.0,0.0,85,0.00,,,0.00,WUHU216HW,2013-02-14 12:33:00,
2013-02-14 04:58:00,24.7,20.8,30.39,NNE,23,0.0,0.0,85,0.00,,,0.00,WUHU216HW,2013-02-14 12:58:00,
2013-02-14 05:03:00,24.7,20.8,30.39,NNE,23,0.0,0.0,85,0.00,,,0.00,WUHU216HW,2013-02-14 13:03:00,
2013-02-14 05:08:00,24.7,20.8,30.39,NNE,23,0.0,0.0,85,0.00,,,0.00,WUHU216HW,2013-02-14 13:08:00,
2013-02-14 05:28:00,24.3,20.4,30.40,NNE,23,0.0,0.0,85,0.00,,,0.00,WUHU216HW,2013-02-14 13:28:00,
2013-02-14 05:33:00,24.3,20.4,30.40,NNE,23,0.0,0.0,85,0.00,,,0.00,WUHU216HW,2013-02-14 13:33:00,
2013-02-14 05:58:00,24.5,20.6,30.40,NNE,23,0.0,0.0,85,0.00,,,0.00,WUHU216HW,2013-02-14 13:58:00,
2013-02-14 06:03:00,24.5,20.6,30.40,NNE,23,0.0,0.0,85,0.00,,,0.00,WUHU216HW,2013-02-14 14:03:00,
2013-02-14 06:08:00,24.5,20.6,30.40,NNE,23,0.0,0.0,85,0.00,,,0.00,WUHU216HW,2013-02-14 14:08:00,
2013-02-14 06:28:00,24.8,21.0,30.42,NNE,23,0.0,0.0,85,0.00,,,0.00,WUHU216HW,2013-02-14 14:28:00,
2013-02-14 06:33:00,24.8,21.0,30.42,NNE,23,0.0,0.0,85,0.00,,,0.00,WUHU216HW,2013-02-14 14:33:00,
2013-02-14 06:58:00,25.0,21.7,30.42,NNE,23,0.0,0.0,87,0.00,,,0.00,WUHU216HW,2013-02-14 14:58:00,
2013-02-14 07:03:00,25.0,21.7,30.42,NNE,23,0.0,0.0,87,0.00,,,0.00,WUHU216HW,2013-02-14 15:03:00,
2013-02-14 07:28:00,25.0,21.4,30.42,NNE,23,0.2,0.2,86,0.00,,,0.00,WUHU216HW,2013-02-14 15:28:00,
2013-02-14 07:33:00,25.0,21.4,30.42,NNE,23,0.2,0.2,86,0.00,,,0.00,WUHU216HW,2013-02-14 15:33:00,
2013-02-14 07:58:00,26.3,23.0,30.43,SSW,203,0.0,0.0,87,0.00,,,0.00,WUHU216HW,2013-02-14 15:58:00,
2013-02-14 08:03:00,26.3,23.0,30.43,SSW,203,0.0,0.0,87,0.00,,,0.00,WUHU216HW,2013-02-14 16:03:00,
2013-02-14 08:28:00,26.6,23.0,30.44,NE,45,0.0,0.0,86,0.00,,,0.00,WUHU216HW,2013-02-14 16:28:00,
2013-02-14 08:33:00,26.6,23.0,30.44,NE,45,0.0,0.0,86,0.00,,,0.00,WUHU216HW,2013-02-14 16:33:00,
2013-02-14 20:58:00,30.6,26.1,30.47,ESE,113,0.0,0.0,83,0.00,,,0.00,WUHU216HW,2013-02-15 04:58:00,
2013-02-14 21:00:00,30.6,25.7,30.47,ESE,113,0.0,0.0,82,0.00,,,0.00,WUHU216HW,2013-02-15 05:00:00,
2013-02-14 21:05:00,30.4,25.6,30.47,ESE,113,0.0,0.0,82,0.00,,,0.00,WUHU216HW,2013-02-15 05:05:00,
2013-02-14 21:10:00,30.4,25.6,30.47,ESE,113,0.0,0.0,82,0.00,,,0.00,WUHU216HW,2013-02-15 05:10:00,
2013-02-14 21:30:00,29.5,25.0,30.49,North,0,0.0,0.0,83,0.00,,,0.00,WUHU216HW,2013-02-15 05:30:00,
2013-02-14 21:35:00,29.5,25.0,30.49,North,0,0.0,0.0,83,0.00,,,0.00,WUHU216HW,2013-02-15 05:35:00,
2013-02-14 21:58:00,28.8,24.3,30.49,NNE,23,0.9,0.9,83,0.00,,,0.00,WUHU216HW,2013-02-15 05:58:00,
2013-02-14 22:03:00,28.8,24.3,30.49,NNE,23,0.9,0.9,83,0.00,,,0.00,WUHU216HW,2013-02-15 06:03:00,
2013-02-14 22:08:00,28.8,24.3,30.49,NNE,23,0.9,0.9,83,0.00,,,0.00,WUHU216HW,2013-02-15 06:08:00,
2013-02-14 22:29:00,28.8,24.8,30.50,NNW,338,0.0,0.0,85,0.00,,,0.00,WUHU216HW,2013-02-15 06:29:00,
2013-02-14 22:34:00,28.8,24.8,30.50,NNW,338,0.0,0.0,85,0.00,,,0.00,WUHU216HW,2013-02-15 06:34:00,
2013-02-14 22:58:00,28.3,24.0,30.51,North,0,0.0,0.0,84,0.00,,,0.00,WUHU216HW,2013-02-15 06:58:00,
2013-02-14 23:03:00,28.3,24.0,30.51,North,0,0.0,0.0,84,0.00,,,0.00,WUHU216HW,2013-02-15 07:03:00,
2013-02-14 23:08:00,28.3,24.0,30.51,North,0,0.0,0.0,84,0.00,,,0.00,WUHU216HW,2013-02-15 07:08:00,
2013-02-14 23:29:00,28.1,23.9,30.51,North,0,0.0,0.0,84,0.00,,,0.00,WUHU216HW,2013-02-15 07:29:00,
2013-02-14 23:34:00,28.1,23.9,30.51,North,0,0.0,0.0,84,0.00,,,0.00,WUHU216HW,2013-02-15 07:34:00,
2013-02-14 23:58:00,28.1,23.9,30.50,North,0,0.0,0.0,84,0.00,,,0.00,WUHU216HW,2013-02-15 07:58:00,